Location: Bu�n Treun
(12.1333°N, 108.3167°E)
Time: 09:09:06
(UTC+00:00)

BEESAT - Pass Details

Date: 05 October 2021
Orbit: 699 x 709 km, 98.6° (Epoch: 18 October)

Event Time Altitude Azimuth Distance (km) Brightness Sun altitude
Exits shadow 12:48:03 20° 325° (NW) 1,587 ? -33.5°
Maximum altitude 12:50:10 28° 285° (WNW) 1,299 ? -34.0°
Drops below altitude 10° 12:54:10 10° 226° (SW) 2,159 ? -35.0°
Sets 12:56:41 0° 215° (SW) 3,078 ? -35.6°
